EUTELSAT 172B (42741 NORAD) Tracking and Keplerian Element Data

This shows tracking and keplerian element data for the satellite.

Feedback or suggestion? Click here.




ElementValue
Catalog42741
NameEUTELSAT 172B
Epoch Orbit621
Epoch Day348.29174199
Epoch Year2018
RAAN343.6242
Inclination0.0208
Eccentricity0.000481
Argument of Perigee284.5241
Mean Anonmoly91.7967
Mean Motion1.00269508
Decay Rate4E-08
L11 42741U 17029B 18348.29174199 .00000004 00000-0 00000+0 0 9996
L22 42741 0.0208 343.6242 0004810 284.5241 91.7967 1.00269508 6212

Live tracking and technical data element details for EUTELSAT 172B (NORAD 42741). EUTELSAT 172B can be tracked NOW for your location showing map with azimuth and elevation plus other details from your city location.

Track the satellite on the map from your city or location and see movement details for azimuth, elevation, latitude, longitude, range, height, and movement on the map or in text.







IsCatalogInMostPopularTable: catalog: 42741, numindb: 176
Update: records affected: 1



GetName: 42741 EUTELSAT 172B

Hit Count: updated at: Sat, 15 Dec 2018 13:31:46 GMT